Location: Bottom School (historical)
(37.9078°N, 89.3593°W)
Time: 07:19:51
(UTC+00:00)

Hubble Space Telescope - Pass Details

Date: 08 December 2022
Orbit: 529 x 532 km, 28.5° (Epoch: 29 January)

Event Time Altitude Azimuth Distance (km) Brightness Sun altitude
Exits shadow 11:27:04 - 214° (SW) 1,956 3.4 -17.9°
Reaches altitude 10° 11:27:48 10° 207° (SSW) 1,761 3.3 -17.8°
Maximum altitude 11:30:22 16° 168° (SSE) 1,405 3.2 -17.3°
Drops below altitude 10° 11:32:57 10° 128° (SE) 1,761 4.5 -16.8°
Sets 11:35:52 0° 107° (ESE) 2,651 6.2 -16.3°
